[[{"header":{"parameterUnit":"m.s-1","parameterCategory":1,"la1":30.2991,"la2":30.254,"lo1":-89.0895,"lo2":-89.0444,"dy":0.0017,"dx":0.0017,"nx":28,"ny":28,"refTime":"2024-02-09T09:00:00:Z","depth":0,"parameterNumber":2,"parameterNumberName":"U-component_of_WINDS"},"data":[0,0,0,0,0,0,0,0,0,0,0,0,0,0,0,0,0,0,0,0,0,0,0,0,0,0,0,0,0,0,0,0,0,0,0,0,0,0,0,0,0,0,0,0,0,0,0,0,0,0,0,0,0,0,0,0,0,0,-3.1396,-3.1397,0,-3.1508,-3.151,-3.1511,-3.1521,-3.152,-3.1519,-3.1518,-3.1635,-3.164,-3.1644,0,0,0,0,0,0,0,0,0,0,0,0,0,-3.1193,-3.1196,-3.1396,-3.1397,-3.1399,-3.1508,-3.151,-3.1511,-3.1521,-3.152,-3.1519,-3.1517,-3.1634,-3.1639,-3.1644,0,0,0,0,0,0,0,0,0,0,0,0,0,-3.1291,-3.1198,-3.1396,-3.1417,-3.142,-3.1508,-3.151,-3.1512,-3.1522,-3.152,-3.1518,-3.1516,-3.1632,-3.1639,-3.1645,-3.172,0,0,-3.1664,-3.1667,0,0,0,0,0,0,0,0,-3.1285,-3.1298,-3.1412,-3.1416,-3.1419,-3.1499,-3.1481,-3.1582,-3.1522,-3.1483,-3.1518,-3.1516,-3.1592,-3.1601,-3.1626,-3.1726,-3.1731,-3.1665,-3.1669,-3.1672,-3.1673,0,0,0,0,0,0,0,-3.1278,-3.1293,-3.144,-3.1414,-3.1418,-3.1422,-3.1434,-3.15,-3.1546,-3.1486,-3.1487,-3.15,-3.1593,-3.162,-3.1629,-3.1732,-3.1665,-3.167,-3.1674,-3.1677,-3.19,-3.1902,0,0,0,0,0,0,-3.1267,-3.1288,-3.1437,-3.1444,-3.1346,-3.1427,-3.144,-3.1475,-3.1545,-3.1554,-3.1502,-3.1501,-3.161,-3.1622,-3.1633,-3.1726,-3.1671,-3.1677,-3.1681,-3.1898,-3.19,-3.1903,0,0,0,0,0,0,-3.1263,-3.128,-3.1432,-3.1366,-3.1386,-3.1432,-3.1471,-3.1478,-3.1505,-3.1557,-3.1566,-3.1521,-3.1609,-3.1624,-3.1698,-3.173,-3.168,-3.1686,-3.1895,-3.1899,-3.1901,-3.1912,0,0,0,0,0,0,-3.1257,-3.1279,-3.1307,-3.1367,-3.1389,-3.1495,-3.1473,-3.1482,-3.1516,-3.1515,-3.1577,-3.1586,-3.1609,-3.1689,-3.1705,-3.1738,-3.1691,-3.1893,-3.1897,-3.19,-3.1909,-3.1915,-3.1921,0,0,0,0,0,-3.125,-3.1306,-3.1308,-3.1326,-3.1425,-3.1496,-3.1509,-3.1534,-3.1518,-3.1548,-3.1581,-3.1584,-3.1725,-3.1696,-3.1714,-3.175,-3.1891,-3.1896,-3.19,-3.1907,-3.1914,-3.1921,0,0,0,0,0,0,-3.125,-3.1314,-3.1317,-3.1395,-3.144,-3.1498,-3.1536,-3.1541,-3.1593,-3.159,-3.1619,-3.1633,-3.1706,-3.1736,-3.1703,-3.1827,-3.1806,-3.1815,-3.1805,-3.1813,-3.1818,-3.1809,-3.1696,0,0,0,0,0,-3.1259,-3.131,-3.1364,-3.1427,-3.1449,-3.1489,-3.1521,-3.1536,-3.1584,-3.1604,-3.1642,-3.169,-3.1745,-3.1781,-3.1834,-3.1914,-3.1928,-3.1948,-3.1953,-3.1958,-3.1965,-3.201,-3.2019,-3.1918,-3.1918,-3.1918,0,0,-3.1278,-3.132,-3.135,-3.1428,-3.1465,-3.1518,-3.1505,-3.1562,-3.1602,-3.1613,-3.1684,-3.1715,-3.177,-3.1847,-3.1883,-3.1874,-3.1996,-3.1964,-3.1967,-3.1972,-3.2016,-3.2025,-3.2033,-3.1921,-3.1921,-3.192,0,0,-3.134,-3.1377,-3.1433,-3.147,-3.1526,-3.1551,-3.1565,-3.1623,-3.1643,-3.1715,-3.1724,-3.1773,-3.1867,-3.1906,-3.1938,-3.2016,-3.202,-3.2033,-3.2062,-3.2106,-3.2114,-3.2121,-3.2149,-3.2158,-3.204,-3.204,-3.204,0,-3.1357,-3.1437,-3.1462,-3.1518,-3.1553,-3.1564,-3.1622,-3.1657,-3.1728,-3.1752,-3.174,-3.1859,-3.1897,-3.1983,-3.2002,-3.2028,-3.2045,-3.2025,-3.211,-3.2118,-3.2125,-3.2152,-3.2162,-3.2041,-3.2041,-3.2041,-3.204,0,-3.1455,-3.1511,-3.155,-3.1616,-3.1655,-3.1713,-3.1747,-3.1783,-3.1796,-3.1823,-3.1897,-3.1943,-3.2006,-3.2028,-3.2041,-3.2117,-3.211,-3.2104,-3.2083,-3.2135,-3.2161,-3.2171,-3.2042,-3.2042,-3.2042,-3.2041,0,0,-3.152,-3.16,-3.1614,-3.1644,-3.1707,-3.1751,-3.1809,-3.187,-3.1901,-3.1949,-3.1999,-3.2079,-3.2074,-3.2111,-3.2128,-3.2166,-3.2225,-3.2156,-3.2158,-3.2167,-3.2312,-3.2315,-3.2327,-3.2228,-3.223,-3.2232,-3.2307,0,-3.1589,-3.1692,-3.1716,-3.1804,-3.1856,-3.1868,-3.1918,-3.1963,-3.199,-3.2039,-3.207,-3.2125,-3.2115,-3.2137,-3.2175,-3.2209,-3.2254,-3.2205,-3.2276,-3.2278,-3.2261,-3.234,-3.2344,-3.2413,-3.2317,-3.2319,-3.232,0,-3.1683,-3.1733,-3.1826,-3.1882,-3.1904,-3.1949,-3.2007,-3.2053,-3.2104,-3.2122,-3.2162,-3.2176,-3.2238,-3.2215,-3.2301,-3.2267,-3.2297,-3.2319,-3.2322,-3.2329,-3.2302,-3.2349,-3.2435,-3.2445,-3.2337,-3.2335,-3.2334,0,-3.1721,-3.1812,-3.1879,-3.1905,-3.1971,-3.2003,-3.2032,-3.2081,-3.2117,-3.2168,-3.2191,-3.2249,-3.2281,-3.2326,-3.2355,-3.2336,-3.244,-3.2418,-3.2456,-3.2455,-3.2477,-3.2475,-3.2568,-3.2497,-3.2497,-3.2497,-3.2497,0,-3.1796,-3.1852,-3.1897,-3.1938,-3.2002,-3.203,-3.2093,-3.2123,-3.2166,-3.2214,-3.2229,-3.2274,-3.231,-3.2361,-3.2385,-3.2452,-3.2467,-3.2483,-3.2489,-3.2482,-3.2479,-3.2502,-3.2498,-3.25,-3.2499,-3.2499,-3.2498,0,-3.1849,-3.1881,-3.1955,-3.2012,-3.2027,-3.2072,-3.2121,-3.2163,-3.219,-3.2251,-3.2267,-3.2311,-3.2371,-3.2405,-3.2481,-3.2497,-3.2573,-3.2576,-3.2555,-3.2557,-3.2593,-3.2589,-3.2704,-3.272,-3.2638,-3.2639,-3.264,0,-3.1894,-3.1937,-3.1999,-3.2031,-3.2061,-3.2114,-3.2149,-3.2179,-3.2216,-3.2277,-3.2311,-3.2372,-3.2422,-3.2518,-3.2558,-3.2616,-3.2621,-3.2657,-3.263,-3.2621,-3.2621,-3.2618,-3.2623,-3.2661,-3.2662,-3.2663,-3.2663,0,-3.1971,-3.1984,-3.2035,-3.2091,-3.2133,-3.2178,-3.2224,-3.225,-3.2288,-3.2329,-3.239,-3.2428,-3.2506,-3.2566,-3.2628,-3.266,-3.2668,-3.2672,-3.2683,-3.2677,-3.2662,-3.2671,-3.2568,-3.2669,-3.2668,-3.2668,-3.2668,-3.2667,-3.2022,-3.2061,-3.211,-3.2165,-3.2203,-3.2245,-3.2286,-3.2319,-3.237,-3.2434,-3.2449,-3.2513,-3.2564,-3.2648,-3.2681,-3.2733,-3.2726,-3.2743,-3.2748,-3.2751,-3.2752,-3.2654,-3.2744,-3.2744,-3.2744,-3.2744,-3.2744,0,-3.2099,-3.2131,-3.2182,-3.2245,-3.2289,-3.2292,-3.2343,-3.2379,-3.2436,-3.2482,-3.253,-3.2601,-3.266,-3.2704,-3.2764,-3.2797,-3.2803,-3.2812,-3.281,-3.2817,-3.2755,-3.2738,-3.2806,-3.2806,-3.2806,-3.2806,-3.2806,-3.2806,-3.2145,-3.2211,-3.223,-3.2316,-3.2348,-3.241,-3.2439,-3.2478,-3.2515,-3.2593,-3.2641,-3.2669,-3.2715,-3.2779,-3.2833,-3.2845,-3.2866,-3.2875,-3.2887,-3.2828,-3.2821,-3.2815,-3.28,-3.288,-3.288,-3.2945,-3.2946,-3.2946]},{"header":{"parameterUnit":"m.s-1","parameterCategory":1,"la1":30.2991,"la2":30.254,"lo1":-89.0895,"lo2":-89.0444,"dy":0.0017,"dx":0.0017,"nx":28,"ny":28,"refTime":"2024-02-09T09:00:00:Z","depth":0,"parameterNumber":3,"parameterNumberName":"V-component_of_WINDS"},"data":[0,0,0,0,0,0,0,0,0,0,0,0,0,0,0,0,0,0,0,0,0,0,0,0,0,0,0,0,0,0,0,0,0,0,0,0,0,0,0,0,0,0,0,0,0,0,0,0,0,0,0,0,0,0,0,0,0,0,3.2016,3.2016,0,3.2039,3.2039,3.204,3.2032,3.2032,3.2031,3.2031,3.2054,3.2055,3.2056,0,0,0,0,0,0,0,0,0,0,0,0,0,3.1964,3.1965,3.2016,3.2016,3.2016,3.2039,3.2039,3.204,3.2032,3.2032,3.2031,3.203,3.2053,3.2054,3.2056,0,0,0,0,0,0,0,0,0,0,0,0,0,3.1987,3.1965,3.2016,3.2015,3.2015,3.2039,3.2039,3.204,3.2032,3.2032,3.2031,3.203,3.2053,3.2054,3.2056,3.2081,0,0,3.2061,3.2062,0,0,0,0,0,0,0,0,3.1985,3.1989,3.2015,3.2015,3.2016,3.2032,3.2029,3.2053,3.2033,3.2026,3.2031,3.203,3.2047,3.2049,3.2055,3.2082,3.2083,3.2061,3.2062,3.2063,3.2063,0,0,0,0,0,0,0,3.1984,3.1988,3.2025,3.2015,3.2016,3.2014,3.2016,3.2034,3.204,3.2026,3.2026,3.2029,3.2047,3.2053,3.2055,3.2083,3.2061,3.2062,3.2063,3.2064,3.2133,3.2134,0,0,0,0,0,0,3.1982,3.1986,3.2024,3.2026,3.1998,3.2015,3.2018,3.2027,3.204,3.2041,3.203,3.2028,3.2051,3.2054,3.2056,3.2087,3.2063,3.2064,3.2065,3.2132,3.2133,3.2134,0,0,0,0,0,0,3.1981,3.1986,3.2023,3.2006,3.201,3.2017,3.2028,3.2028,3.2035,3.2042,3.2043,3.2035,3.2051,3.2054,3.2075,3.2088,3.2065,3.2066,3.2131,3.2132,3.2134,3.2149,0,0,0,0,0,0,3.198,3.1985,3.1995,3.2006,3.2011,3.2042,3.2028,3.2029,3.2038,3.2037,3.2048,3.2049,3.205,3.2073,3.2077,3.209,3.2068,3.213,3.2132,3.2133,3.2147,3.2151,3.2154,0,0,0,0,0,3.1978,3.1998,3.1995,3.2,3.2024,3.2043,3.2046,3.2047,3.2039,3.2049,3.2054,3.2049,3.2086,3.2075,3.2079,3.2093,3.2129,3.2131,3.2133,3.2146,3.215,3.2153,0,0,0,0,0,0,3.1987,3.1999,3.1997,3.2021,3.2031,3.2041,3.2054,3.2051,3.2063,3.2062,3.2062,3.2065,3.2087,3.2092,3.208,3.2118,3.2106,3.2109,3.2115,3.2118,3.2121,3.212,3.2069,0,0,0,0,0,3.1992,3.2007,3.2016,3.2037,3.2042,3.2047,3.2055,3.2056,3.2066,3.207,3.2076,3.2086,3.21,3.2109,3.2122,3.2148,3.2151,3.2159,3.2162,3.2165,3.2168,3.2183,3.2187,3.214,3.214,3.214,0,0,3.2002,3.2011,3.202,3.2039,3.2047,3.2062,3.2051,3.2067,3.2079,3.2072,3.2093,3.2098,3.2109,3.2133,3.2144,3.2138,3.2181,3.2167,3.2169,3.2171,3.2185,3.219,3.2194,3.2142,3.2141,3.2141,0,0,3.203,3.2037,3.2056,3.2064,3.2076,3.2079,3.2084,3.2095,3.2098,3.2119,3.2115,3.2129,3.2152,3.2161,3.2168,3.2199,3.2196,3.2203,3.222,3.2234,3.2238,3.2242,3.2254,3.2258,3.2206,3.2206,3.2206,0,3.2041,3.2064,3.2065,3.2083,3.2092,3.2087,3.2106,3.2114,3.2129,3.2136,3.2129,3.2159,3.2166,3.2193,3.22,3.2206,3.2212,3.2203,3.2238,3.2241,3.2244,3.2256,3.226,3.2207,3.2207,3.2207,3.2207,0,3.2078,3.2095,3.2108,3.2124,3.2134,3.2152,3.2156,3.2166,3.2166,3.217,3.2192,3.22,3.2215,3.2221,3.222,3.2248,3.2244,3.2237,3.2225,3.225,3.2261,3.2265,3.2208,3.2208,3.2208,3.2207,0,0,3.2113,3.213,3.2135,3.2143,3.2156,3.2169,3.2186,3.2202,3.2211,3.2222,3.2238,3.2258,3.2252,3.2261,3.2261,3.2273,3.2299,3.2265,3.2266,3.2273,3.2332,3.2338,3.2343,3.2296,3.2297,3.2298,3.2331,0,3.2142,3.2175,3.2176,3.2206,3.2221,3.2217,3.2233,3.2243,3.2247,3.2261,3.2265,3.228,3.2271,3.2276,3.2288,3.2294,3.2311,3.2291,3.2312,3.2313,3.2311,3.2349,3.2355,3.2386,3.2336,3.2336,3.2337,0,3.2181,3.2194,3.2226,3.2238,3.2244,3.2259,3.2274,3.2286,3.2298,3.23,3.231,3.2308,3.2327,3.2313,3.2339,3.2325,3.2334,3.2338,3.2339,3.2342,3.2327,3.2354,3.2396,3.2401,3.2343,3.2343,3.2342,0,3.2205,3.2231,3.2253,3.2259,3.2274,3.2284,3.229,3.2301,3.231,3.2323,3.233,3.2344,3.2352,3.2364,3.2366,3.2356,3.2393,3.2379,3.2396,3.2396,3.2405,3.2405,3.245,3.2408,3.2408,3.2408,3.2407,0,3.2239,3.2259,3.2264,3.2278,3.23,3.2301,3.2323,3.2329,3.2338,3.2353,3.2349,3.2364,3.2365,3.238,3.2382,3.2404,3.2407,3.241,3.241,3.2411,3.2411,3.2418,3.2416,3.2409,3.2409,3.2408,3.2408,0,3.2271,3.2275,3.2299,3.2311,3.2314,3.233,3.234,3.2353,3.2357,3.2376,3.2381,3.2387,3.2404,3.2407,3.2427,3.2428,3.2455,3.2452,3.2452,3.2452,3.2469,3.2468,3.2522,3.2529,3.2481,3.2481,3.2481,0,3.2293,3.2308,3.2322,3.2332,3.2339,3.2355,3.2365,3.2366,3.2377,3.2391,3.2403,3.242,3.2434,3.2461,3.2467,3.2483,3.2481,3.2499,3.2484,3.2484,3.2484,3.2483,3.2486,3.2503,3.2503,3.2503,3.2504,0,3.2333,3.2334,3.2349,3.2365,3.2377,3.2389,3.2401,3.2409,3.2412,3.2425,3.2442,3.2453,3.2474,3.2491,3.2506,3.2512,3.2509,3.2508,3.2514,3.2515,3.2515,3.2517,3.2461,3.2508,3.2507,3.2507,3.2507,3.2507,3.2361,3.2375,3.2387,3.2404,3.2413,3.2424,3.2438,3.2444,3.2458,3.2476,3.2476,3.2495,3.2507,3.2527,3.2534,3.255,3.2544,3.2551,3.2553,3.2555,3.2558,3.2511,3.2552,3.2552,3.2552,3.2552,3.2552,0,3.2402,3.241,3.2425,3.2442,3.2456,3.2451,3.2464,3.2475,3.2493,3.2504,3.2518,3.2538,3.2555,3.2562,3.2579,3.259,3.2589,3.2594,3.2594,3.2596,3.2561,3.2556,3.2595,3.2595,3.2595,3.2595,3.2595,3.2595,3.2426,3.2449,3.2452,3.248,3.2487,3.2507,3.2515,3.2526,3.2534,3.2558,3.2572,3.2577,3.2586,3.2603,3.2619,3.262,3.2627,3.2634,3.2635,3.2603,3.2598,3.2594,3.259,3.2635,3.2635,3.2669,3.2669,3.267]}]]